GAP2040 RPVE-RPLL

Flight info

Callsign GAP2040
Flight time 0h 45m
Altitude 26000
Route MINOR8A MINOR B473 LAIYA LAIYA5R
Aircraft A320/M-SDE3FGHIRWY/LB1

Departure

Time 2026-04-26 12:59
Airport Godofredo P. Ramos Airport (RPVE)

Arrival

Time 2026-04-26 13:44
Airport Ninoy Aquino International Airport (RPLL)
Time Latitude Longitude Altitude Speed Heading
2026-04-26 12:32 11.92696 121.96461 30 ft 0 kts 153°
2026-04-26 12:48 11.92704 121.96456 30 ft 2 kts 154°
2026-04-26 12:49 11.92718 121.96449 30 ft 2 kts 152°
2026-04-26 12:49 11.92732 121.96442 30 ft 2 kts 168°
2026-04-26 12:49 11.92747 121.96444 30 ft 2 kts 207°
2026-04-26 12:49 11.92757 121.96452 30 ft 0 kts 239°
2026-04-26 12:50 11.92757 121.96453 30 ft 2 kts 238°
2026-04-26 12:50 11.92743 121.96428 30 ft 2 kts 243°
2026-04-26 12:50 11.92741 121.96423 30 ft 0 kts 243°
2026-04-26 12:52 11.92740 121.96421 30 ft 0 kts 243°
2026-04-26 12:52 11.92735 121.96410 30 ft 2 kts 243°
2026-04-26 12:53 11.92720 121.96382 30 ft 5 kts 243°
2026-04-26 12:53 11.92697 121.96336 30 ft 8 kts 244°
2026-04-26 12:53 11.92667 121.96274 30 ft 11 kts 244°
2026-04-26 12:53 11.92647 121.96197 30 ft 11 kts 305°
2026-04-26 12:54 11.92720 121.96156 30 ft 12 kts 333°
2026-04-26 12:54 11.92792 121.96104 30 ft 12 kts 291°
2026-04-26 12:54 11.92769 121.96021 30 ft 13 kts 243°
2026-04-26 12:54 11.92726 121.95934 30 ft 14 kts 243°
2026-04-26 12:55 11.92680 121.95843 30 ft 14 kts 243°
2026-04-26 12:55 11.92631 121.95747 30 ft 15 kts 242°
2026-04-26 12:55 11.92582 121.95649 30 ft 16 kts 243°
2026-04-26 12:55 11.92530 121.95545 30 ft 16 kts 243°
2026-04-26 12:56 11.92476 121.95438 30 ft 17 kts 244°
2026-04-26 12:56 11.92422 121.95330 30 ft 17 kts 242°
2026-04-26 12:56 11.92366 121.95219 30 ft 17 kts 243°
2026-04-26 12:56 11.92310 121.95111 30 ft 14 kts 240°
2026-04-26 12:57 11.92250 121.95037 30 ft 11 kts 244°
2026-04-26 12:57 11.92278 121.95031 30 ft 6 kts 69°
2026-04-26 12:57 11.92297 121.95079 30 ft 7 kts 66°
2026-04-26 12:58 11.92319 121.95127 30 ft 0 kts 62°
2026-04-26 12:58 11.92325 121.95138 30 ft 18 kts 62°
2026-04-26 12:58 11.92534 121.95544 30 ft 106 kts 67°
2026-04-26 12:59 11.92979 121.96416 217 ft 155 kts 62°
2026-04-26 12:59 11.93486 121.97407 928 ft 162 kts 63°
2026-04-26 12:59 11.93977 121.98429 1811 ft 164 kts 64°
2026-04-26 12:59 11.94445 121.99422 2620 ft 155 kts 64°
2026-04-26 13:00 11.94972 122.00469 2971 ft 174 kts 63°
2026-04-26 13:00 11.95555 122.01611 3370 ft 191 kts 63°
2026-04-26 13:00 11.96317 122.02724 3612 ft 182 kts 47°
2026-04-26 13:00 11.97326 122.03463 3668 ft 174 kts 32°
2026-04-26 13:01 11.98404 122.04012 4041 ft 173 kts 29°
2026-04-26 13:01 11.99473 122.04533 4689 ft 171 kts 29°
2026-04-26 13:01 12.00565 122.05071 5174 ft 181 kts 29°
2026-04-26 13:01 12.01751 122.05666 5600 ft 196 kts 28°
2026-04-26 13:02 12.03001 122.06295 6137 ft 206 kts 28°
2026-04-26 13:02 12.04309 122.06953 6780 ft 210 kts 28°
2026-04-26 13:02 12.05625 122.07616 7431 ft 213 kts 28°
2026-04-26 13:02 12.07005 122.08312 7905 ft 226 kts 28°
2026-04-26 13:03 12.08462 122.09050 8276 ft 243 kts 28°
2026-04-26 13:03 12.10048 122.09853 8641 ft 261 kts 28°
2026-04-26 13:03 12.11735 122.10708 9133 ft 272 kts 28°
2026-04-26 13:03 12.13449 122.11575 9777 ft 276 kts 27°
2026-04-26 13:04 12.15178 122.12450 10435 ft 280 kts 27°
2026-04-26 13:04 12.16926 122.13335 11084 ft 282 kts 27°
2026-04-26 13:04 12.18710 122.14239 11537 ft 293 kts 27°
2026-04-26 13:04 12.20607 122.15200 11897 ft 306 kts 27°
2026-04-26 13:05 12.22521 122.16170 12455 ft 311 kts 27°
2026-04-26 13:05 12.24479 122.17163 13045 ft 313 kts 27°
2026-04-26 13:05 12.26405 122.18139 13870 ft 306 kts 27°
2026-04-26 13:05 12.28275 122.19087 14764 ft 295 kts 27°
2026-04-26 13:06 12.30135 122.20032 15229 ft 302 kts 27°
2026-04-26 13:06 12.32071 122.21014 15468 ft 315 kts 27°
2026-04-26 13:06 12.34092 122.22040 15698 ft 329 kts 26°
2026-04-26 13:06 12.36263 122.22865 15889 ft 342 kts
2026-04-26 13:07 12.38686 122.22680 16089 ft 355 kts 342°
2026-04-26 13:07 12.40881 122.21456 16372 ft 364 kts 324°
2026-04-26 13:07 12.42906 122.19849 16822 ft 367 kts 322°
2026-04-26 13:07 12.44908 122.18252 17274 ft 369 kts 323°
2026-04-26 13:08 12.46992 122.16656 17731 ft 371 kts 324°
2026-04-26 13:08 12.49082 122.15111 18150 ft 374 kts 324°
2026-04-26 13:08 12.51227 122.13563 18569 ft 376 kts 325°
2026-04-26 13:08 12.53404 122.12017 18996 ft 377 kts 325°
2026-04-26 13:09 12.55583 122.10483 19395 ft 379 kts 325°
2026-04-26 13:09 12.57748 122.08967 19790 ft 381 kts 325°
2026-04-26 13:09 12.59978 122.07410 20190 ft 383 kts 325°
2026-04-26 13:09 12.62172 122.05881 20557 ft 385 kts 325°
2026-04-26 13:10 12.64399 122.04329 20927 ft 387 kts 325°
2026-04-26 13:10 12.66624 122.02781 21283 ft 388 kts 325°
2026-04-26 13:10 12.68875 122.01213 21626 ft 391 kts 325°
2026-04-26 13:10 12.71133 121.99641 21971 ft 392 kts 325°
2026-04-26 13:11 12.73415 121.98053 22310 ft 394 kts 325°
2026-04-26 13:11 12.75675 121.96480 22652 ft 396 kts 325°
2026-04-26 13:11 12.77974 121.94880 22982 ft 398 kts 324°
2026-04-26 13:11 12.80280 121.93274 23375 ft 398 kts 324°
2026-04-26 13:12 12.82574 121.91676 23772 ft 398 kts 324°
2026-04-26 13:12 12.84871 121.90074 24134 ft 399 kts 324°
2026-04-26 13:12 12.87178 121.88465 24481 ft 400 kts 324°
2026-04-26 13:12 12.89502 121.86844 24789 ft 403 kts 324°
2026-04-26 13:13 12.91822 121.85227 25103 ft 405 kts 324°
2026-04-26 13:13 12.94187 121.83576 25430 ft 406 kts 324°
2026-04-26 13:13 12.96536 121.81938 25753 ft 408 kts 324°
2026-04-26 13:13 12.98896 121.80290 25886 ft 411 kts 324°
2026-04-26 13:14 13.01244 121.78651 25893 ft 411 kts 324°
2026-04-26 13:14 13.03635 121.76981 25898 ft 411 kts 324°
2026-04-26 13:14 13.05989 121.75337 25902 ft 411 kts 324°
2026-04-26 13:14 13.08359 121.73682 25903 ft 411 kts 324°
2026-04-26 13:15 13.10743 121.72016 25903 ft 410 kts 324°
2026-04-26 13:15 13.13108 121.70363 25902 ft 410 kts 323°
2026-04-26 13:15 13.15501 121.68690 25908 ft 410 kts 323°
2026-04-26 13:15 13.17848 121.67047 25909 ft 410 kts 323°
2026-04-26 13:16 13.20215 121.65392 25909 ft 410 kts 324°
2026-04-26 13:16 13.22599 121.63722 25910 ft 410 kts 324°
2026-04-26 13:16 13.24948 121.62079 25909 ft 410 kts 324°
2026-04-26 13:16 13.27348 121.60398 25912 ft 410 kts 324°
2026-04-26 13:17 13.32068 121.57094 25908 ft 410 kts 324°
2026-04-26 13:17 13.34440 121.55432 25910 ft 410 kts 324°
2026-04-26 13:18 13.39176 121.52113 25911 ft 410 kts 324°
2026-04-26 13:18 13.41548 121.50450 25911 ft 409 kts 323°
2026-04-26 13:18 13.46241 121.47155 25916 ft 409 kts 324°
2026-04-26 13:19 13.48620 121.45485 25919 ft 409 kts 323°
2026-04-26 13:19 13.50982 121.43826 25919 ft 409 kts 323°
2026-04-26 13:19 13.53323 121.42181 25920 ft 408 kts 324°
2026-04-26 13:19 13.55682 121.40525 25919 ft 408 kts 324°
2026-04-26 13:20 13.58020 121.38886 25919 ft 408 kts 324°
2026-04-26 13:20 13.60394 121.37235 25920 ft 408 kts 324°
2026-04-26 13:20 13.62757 121.35596 25921 ft 408 kts 324°
2026-04-26 13:20 13.65138 121.33942 25927 ft 408 kts 324°
2026-04-26 13:21 13.67484 121.32310 25929 ft 408 kts 324°
2026-04-26 13:21 13.69089 121.31194 25931 ft 408 kts 324°
2026-04-26 13:21 13.72224 121.29010 25929 ft 408 kts 324°
2026-04-26 13:21 13.74600 121.27353 25929 ft 408 kts 324°
2026-04-26 13:22 13.76965 121.25703 25931 ft 408 kts 324°
2026-04-26 13:22 13.79318 121.24060 25936 ft 408 kts 324°
2026-04-26 13:22 13.81645 121.22436 25918 ft 404 kts 324°
2026-04-26 13:22 13.83955 121.20824 25414 ft 394 kts 324°
2026-04-26 13:23 13.86283 121.19304 24299 ft 397 kts 333°
2026-04-26 13:23 13.88901 121.18391 23116 ft 399 kts 344°
2026-04-26 13:23 13.91599 121.17753 22109 ft 395 kts 346°
2026-04-26 13:23 13.94245 121.17145 21294 ft 386 kts 345°
2026-04-26 13:24 13.96827 121.16522 20416 ft 380 kts 345°
2026-04-26 13:24 13.99416 121.15871 19489 ft 376 kts 345°
2026-04-26 13:24 14.01933 121.15219 18603 ft 375 kts 344°
2026-04-26 13:24 14.04475 121.14551 18003 ft 373 kts 344°
2026-04-26 13:25 14.06968 121.13890 17521 ft 369 kts 344°
2026-04-26 13:25 14.09442 121.13173 17027 ft 366 kts 338°
2026-04-26 13:25 14.11633 121.11814 16502 ft 362 kts 316°
2026-04-26 13:25 14.13157 121.09785 16021 ft 359 kts 296°
2026-04-26 13:26 14.13865 121.07313 15519 ft 357 kts 275°
2026-04-26 13:26 14.13917 121.04709 15057 ft 354 kts 269°
2026-04-26 13:26 14.13829 121.02141 14565 ft 353 kts 268°
2026-04-26 13:26 14.13715 120.99591 14170 ft 348 kts 267°
2026-04-26 13:27 14.13601 120.97118 13926 ft 332 kts 267°
2026-04-26 13:27 14.13492 120.94813 13660 ft 315 kts 267°
2026-04-26 13:27 14.13386 120.92573 13405 ft 301 kts 267°
2026-04-26 13:27 14.13284 120.90418 13226 ft 291 kts 267°
2026-04-26 13:28 14.13185 120.88322 13062 ft 282 kts 267°
2026-04-26 13:28 14.12998 120.86337 12884 ft 274 kts 254°
2026-04-26 13:28 14.12242 120.84568 12726 ft 265 kts 240°
2026-04-26 13:28 14.11297 120.82935 12542 ft 256 kts 238°
2026-04-26 13:29 14.10334 120.81351 12197 ft 255 kts 237°
2026-04-26 13:29 14.09698 120.80313 12011 ft 254 kts 237°
2026-04-26 13:29 14.08699 120.78063 11414 ft 260 kts 264°
2026-04-26 13:29 14.08911 120.76195 10975 ft 261 kts 295°
2026-04-26 13:30 14.09924 120.74635 10550 ft 261 kts 313°
2026-04-26 13:30 14.11205 120.73261 10115 ft 264 kts 316°
2026-04-26 13:30 14.12538 120.71919 9692 ft 268 kts 317°
2026-04-26 13:30 14.13893 120.70567 9251 ft 264 kts 317°
2026-04-26 13:31 14.15232 120.69229 8820 ft 266 kts 317°
2026-04-26 13:31 14.16578 120.67885 8592 ft 264 kts 317°
2026-04-26 13:31 14.17906 120.66561 8176 ft 265 kts 317°
2026-04-26 13:31 14.19235 120.65234 7693 ft 262 kts 317°
2026-04-26 13:32 14.20529 120.63933 7217 ft 260 kts 317°
2026-04-26 13:32 14.21809 120.62643 6742 ft 256 kts 317°
2026-04-26 13:32 14.23085 120.61356 6272 ft 253 kts 317°
2026-04-26 13:32 14.24338 120.60137 6006 ft 248 kts 324°
2026-04-26 13:33 14.25786 120.59279 5966 ft 230 kts 349°
2026-04-26 13:33 14.27301 120.59298 5966 ft 208 kts 24°
2026-04-26 13:33 14.28455 120.60138 5993 ft 204 kts 50°
2026-04-26 13:33 14.29299 120.61256 5976 ft 191 kts 56°
2026-04-26 13:34 14.30062 120.62405 5999 ft 199 kts 57°
2026-04-26 13:34 14.30842 120.63611 6017 ft 201 kts 57°
2026-04-26 13:34 14.31570 120.64781 6053 ft 184 kts 61°
2026-04-26 13:34 14.31950 120.65530 6012 ft 173 kts 64°
2026-04-26 13:35 14.32592 120.66918 5974 ft 153 kts 65°
2026-04-26 13:35 14.33043 120.67904 5886 ft 149 kts 65°
2026-04-26 13:35 14.33491 120.68868 5590 ft 149 kts 65°
2026-04-26 13:35 14.33944 120.69831 5276 ft 150 kts 65°
2026-04-26 13:36 14.34399 120.70795 4972 ft 149 kts 64°
2026-04-26 13:36 14.34857 120.71760 4651 ft 150 kts 64°
2026-04-26 13:36 14.35317 120.72724 4380 ft 148 kts 64°
2026-04-26 13:36 14.35771 120.73675 4163 ft 148 kts 64°
2026-04-26 13:37 14.36229 120.74634 3959 ft 148 kts 64°
2026-04-26 13:37 14.36620 120.75607 3762 ft 147 kts 70°
2026-04-26 13:37 14.36981 120.76605 3566 ft 147 kts 68°
2026-04-26 13:37 14.37397 120.77557 3375 ft 146 kts 64°
2026-04-26 13:38 14.37875 120.78490 3187 ft 145 kts 62°
2026-04-26 13:38 14.38359 120.79392 3052 ft 144 kts 61°
2026-04-26 13:38 14.38858 120.80308 3048 ft 145 kts 61°
2026-04-26 13:38 14.39354 120.81213 3019 ft 145 kts 60°
2026-04-26 13:39 14.39854 120.82122 3003 ft 145 kts 60°
2026-04-26 13:39 14.40354 120.83028 3028 ft 145 kts 60°
2026-04-26 13:39 14.40852 120.83927 3050 ft 145 kts 60°
2026-04-26 13:39 14.41357 120.84838 3100 ft 144 kts 60°
2026-04-26 13:40 14.41858 120.85740 3048 ft 145 kts 60°
2026-04-26 13:40 14.42362 120.86648 2869 ft 144 kts 60°
2026-04-26 13:40 14.42852 120.87529 2683 ft 140 kts 60°
2026-04-26 13:40 14.43334 120.88397 2501 ft 139 kts 60°
2026-04-26 13:41 14.43815 120.89263 2334 ft 138 kts 60°
2026-04-26 13:41 14.44296 120.90131 2155 ft 138 kts 59°
2026-04-26 13:41 14.44770 120.90984 1982 ft 137 kts 59°
2026-04-26 13:41 14.45250 120.91851 1803 ft 137 kts 59°
2026-04-26 13:42 14.45723 120.92703 1632 ft 137 kts 60°
2026-04-26 13:42 14.46199 120.93560 1453 ft 136 kts 60°
2026-04-26 13:42 14.46673 120.94413 1275 ft 136 kts 61°
2026-04-26 13:42 14.47131 120.95254 1111 ft 136 kts 60°
2026-04-26 13:43 14.47610 120.96107 947 ft 135 kts 59°
2026-04-26 13:43 14.48091 120.96950 759 ft 135 kts 61°
2026-04-26 13:43 14.48565 120.97778 587 ft 134 kts 62°
2026-04-26 13:43 14.49021 120.98631 408 ft 134 kts 63°
2026-04-26 13:44 14.49483 120.99469 245 ft 133 kts 62°
2026-04-26 13:44 14.49939 121.00287 87 ft 133 kts 62°
2026-04-26 13:44 14.50342 121.01015 82 ft 92 kts 62°
2026-04-26 13:44 14.50575 121.01437 82 ft 45 kts 56°
2026-04-26 13:45 14.50731 121.01688 82 ft 34 kts 41°
2026-04-26 13:45 14.50841 121.01774 82 ft 6 kts 33°
2026-04-26 13:45 14.50857 121.01784 82 ft 1 kts 31°
2026-04-26 13:45 14.50870 121.01788 82 ft 2 kts
2026-04-26 13:46 14.50890 121.01782 82 ft 3 kts 314°
2026-04-26 13:46 14.50893 121.01750 82 ft 5 kts 271°
2026-04-26 13:46 14.50888 121.01710 82 ft 6 kts 257°
2026-04-26 13:46 14.50897 121.01662 82 ft 7 kts 304°
2026-04-26 13:47 14.50914 121.01610 82 ft 8 kts 253°
2026-04-26 13:47 14.50882 121.01551 82 ft 10 kts 239°
2026-04-26 13:47 14.50850 121.01489 82 ft 9 kts 258°
2026-04-26 13:47 14.50881 121.01434 82 ft 7 kts 330°
2026-04-26 13:48 14.50917 121.01412 82 ft 5 kts 329°
2026-04-26 13:48 14.50924 121.01408 82 ft 0 kts 329°